Eastsound, WA
on Wednesday, December 19, 2012

Wednesday
Previous Day Next Day
Daily Summary
 ActualAverage (KBLI)Record (KBLI)
Temperature
Mean Temperature °F 38°F  
Max Temperature 42°F 44°F 58°F (1959)
Min Temperature 37°F 32°F 12°F (1990)
Degree Days
Heating Degree Days 26 27  
Month to date heating degree days 503  
Cooling Degree Days 0 0  
Month to date cooling degree days 0  
Year to date cooling degree days 42  
Moisture
Dew Point 35°F   
Average Humidity 83    
Maximum Humidity 93    
Minimum Humidity 75    
Precipitation
Precipitation 0.03 in 0.13 in 1.07 in (1953)
Month to date precipitation 2.73  
Year to date precipitation 34.34  
Wind
Wind Speed 12 mph   
Max Wind Speed 17 mph   
Max Gust Speed 37 mph   
Visibility 9 miles   
Events Rain   

Key: T is trace of precipitation, MM is missing value
Source: NWS Daily Summary
Time(PST)TemperatureDew PointHumidity Pressure Visibility Wind DirectionWind SpeedGust SpeedPrecipitationEvents Conditions
12:15 AM 37.4°F 32.0°F 81% 29.84 in 10.0 miles South 10.4 mph 19.6 mph N/A   Partly Cloudy
12:35 AM 37.4°F 32.0°F 81% 29.84 in 10.0 miles SSE 9.2 mph 18.4 mph N/A   Mostly Cloudy
12:55 AM 37.4°F 32.0°F 81% 29.83 in 10.0 miles South 10.4 mph 19.6 mph N/A   Mostly Cloudy
1:15 AM 37.4°F 32.0°F 81% 29.84 in 10.0 miles South 9.2 mph 16.1 mph N/A   Mostly Cloudy
1:35 AM 37.4°F 32.0°F 81% 29.82 in 10.0 miles SSE 11.5 mph 23.0 mph N/A   Mostly Cloudy
2:15 AM 37.4°F 32.0°F 81% 29.79 in 10.0 miles SSE 10.4 mph 23.0 mph N/A   Scattered Clouds
2:35 AM 37.4°F 32.0°F 81% 29.78 in 10.0 miles SSE 11.5 mph 24.2 mph N/A   Partly Cloudy
2:55 AM 37.4°F 32.0°F 81% 29.77 in 10.0 miles SSE 9.2 mph 33.4 mph N/A   Scattered Clouds
3:15 AM 37.4°F 32.0°F 81% 29.76 in 10.0 miles SSE 12.7 mph 26.5 mph N/A   Overcast
3:35 AM 37.4°F 32.0°F 81% 29.75 in 10.0 miles SSE 10.4 mph 24.2 mph N/A Rain Light Rain
3:55 AM 37.4°F 32.0°F 81% 29.73 in 8.0 miles SSE 15.0 mph 25.3 mph N/A Rain Light Rain
4:15 AM 37.4°F 32.0°F 81% 29.72 in 5.0 miles SE 15.0 mph 29.9 mph N/A Rain Light Rain
4:55 AM 37.4°F 32.0°F 81% 29.67 in 10.0 miles South 10.4 mph 24.2 mph N/A   Scattered Clouds
5:15 AM 37.4°F 32.0°F 81% 29.67 in 10.0 miles SSE 12.7 mph 27.6 mph N/A   Scattered Clouds
5:35 AM 37.4°F 32.0°F 81% 29.67 in 10.0 miles South 13.8 mph 26.5 mph N/A   Mostly Cloudy
5:55 AM 37.4°F 32.0°F 81% 29.66 in 8.0 miles South 8.1 mph 23.0 mph N/A Rain Light Rain
6:15 AM 37.4°F 32.0°F 81% 29.65 in 10.0 miles South 11.5 mph 19.6 mph N/A   Partly Cloudy
6:35 AM 39.2°F 32.0°F 75% 29.64 in 10.0 miles South 10.4 mph 23.0 mph N/A   Partly Cloudy
7:15 AM 39.2°F 32.0°F 75% 29.62 in 10.0 miles SSE 13.8 mph 36.8 mph N/A   Clear
7:35 AM 39.2°F 32.0°F 75% 29.60 in 10.0 miles SSE 15.0 mph 26.5 mph N/A   Partly Cloudy
7:55 AM 39.2°F 32.0°F 75% 29.60 in 10.0 miles South 15.0 mph 24.2 mph N/A   Mostly Cloudy
8:15 AM 39.2°F 33.8°F 81% 29.59 in 10.0 miles SSE 12.7 mph 29.9 mph N/A   Mostly Cloudy
8:35 AM 39.2°F 33.8°F 81% 29.57 in 10.0 miles SSE 16.1 mph 31.1 mph N/A   Mostly Cloudy
8:55 AM 39.2°F 33.8°F 81% 29.58 in 10.0 miles South 13.8 mph 32.2 mph N/A   Mostly Cloudy
9:15 AM 39.2°F 35.6°F 87% 29.59 in 2.5 miles South 13.8 mph 31.1 mph 0.01 in   Mostly Cloudy
9:35 AM 39.2°F 35.6°F 87% 29.57 in 5.0 miles South 13.8 mph 23.0 mph 0.02 in Rain Light Rain
9:55 AM 39.2°F 35.6°F 87% 29.56 in 5.0 miles South 15.0 mph 32.2 mph 0.02 in Rain Light Rain
10:15 AM 39.2°F 35.6°F 87% 29.56 in 6.0 miles South 13.8 mph 25.3 mph N/A Rain Light Rain
10:35 AM 39.2°F 35.6°F 87% 29.55 in 9.0 miles SSE 10.4 mph 28.8 mph N/A Rain Light Rain
10:55 AM 39.2°F 35.6°F 87% 29.55 in 10.0 miles South 15.0 mph 28.8 mph N/A   Partly Cloudy
11:15 AM 39.2°F 35.6°F 87% 29.55 in 10.0 miles SSE 12.7 mph 20.7 mph N/A   Mostly Cloudy
11:35 AM 39.2°F 35.6°F 87% 29.55 in 10.0 miles South 11.5 mph 20.7 mph N/A   Scattered Clouds
11:55 AM 39.2°F 35.6°F 87% 29.53 in 10.0 miles South 15.0 mph 28.8 mph N/A   Mostly Cloudy
12:15 PM 41.0°F 35.6°F 81% 29.53 in 10.0 miles SSE 11.5 mph 26.5 mph N/A   Mostly Cloudy
12:35 PM 41.0°F 35.6°F 81% 29.52 in 10.0 miles South 10.4 mph 26.5 mph N/A   Mostly Cloudy
12:55 PM 41.0°F 35.6°F 81% 29.51 in 10.0 miles South 17.3 mph 26.5 mph N/A   Scattered Clouds
1:15 PM 41.0°F 35.6°F 81% 29.50 in 8.0 miles SSE 15.0 mph 31.1 mph N/A Rain Light Rain
1:35 PM 41.0°F 37.4°F 87% 29.49 in 5.0 miles South 11.5 mph 33.4 mph N/A Rain Light Rain
1:55 PM 39.2°F 37.4°F 93% 29.50 in 4.0 miles SSE 10.4 mph 26.5 mph N/A Rain Light Rain
2:15 PM 41.0°F 37.4°F 87% 29.50 in 6.0 miles South 15.0 mph 25.3 mph N/A Rain Light Rain
2:35 PM 41.0°F 37.4°F 87% 29.49 in 10.0 miles South 16.1 mph 34.5 mph N/A   Mostly Cloudy
2:55 PM 41.0°F 37.4°F 87% 29.49 in 8.0 miles South 15.0 mph 27.6 mph N/A Rain Light Rain
3:15 PM 41.0°F 37.4°F 87% 29.50 in 10.0 miles South 16.1 mph 26.5 mph 0.01 in   Partly Cloudy
3:35 PM 41.0°F 37.4°F 87% 29.49 in 10.0 miles South 10.4 mph 27.6 mph 0.01 in   Partly Cloudy
3:55 PM 41.0°F 37.4°F 87% 29.47 in 10.0 miles South 15.0 mph 32.2 mph 0.01 in   Scattered Clouds
4:15 PM 41.0°F 35.6°F 81% 29.48 in 10.0 miles South 13.8 mph 28.8 mph N/A   Scattered Clouds
4:35 PM 41.0°F 35.6°F 81% 29.48 in 10.0 miles South 13.8 mph 25.3 mph N/A   Mostly Cloudy
4:55 PM 41.0°F 35.6°F 81% 29.49 in 10.0 miles South 11.5 mph 28.8 mph N/A   Mostly Cloudy
5:15 PM 41.0°F 35.6°F 81% 29.49 in 10.0 miles SSE 17.3 mph 31.1 mph N/A   Mostly Cloudy
5:35 PM 41.0°F 35.6°F 81% 29.50 in 10.0 miles South 15.0 mph 26.5 mph N/A   Mostly Cloudy
5:55 PM 41.0°F 35.6°F 81% 29.50 in 10.0 miles South 12.7 mph 24.2 mph N/A   Mostly Cloudy
6:15 PM 41.0°F 35.6°F 81% 29.51 in 10.0 miles South 9.2 mph 32.2 mph N/A   Mostly Cloudy
6:35 PM 41.0°F 37.4°F 87% 29.51 in 10.0 miles SSE 13.8 mph 27.6 mph N/A   Mostly Cloudy
6:55 PM 41.0°F 37.4°F 87% 29.51 in 10.0 miles South 11.5 mph 23.0 mph N/A   Mostly Cloudy
7:15 PM 41.0°F 37.4°F 87% 29.53 in 10.0 miles South 16.1 mph 24.2 mph N/A   Mostly Cloudy
7:35 PM 42.8°F 37.4°F 81% 29.53 in 10.0 miles South 12.7 mph 29.9 mph N/A   Mostly Cloudy
7:55 PM 42.8°F 37.4°F 81% 29.53 in 10.0 miles South 11.5 mph 27.6 mph N/A   Overcast
8:15 PM 42.8°F 37.4°F 81% 29.55 in 10.0 miles South 11.5 mph 23.0 mph N/A   Overcast
8:35 PM 42.8°F 37.4°F 81% 29.56 in 10.0 miles South 15.0 mph 27.6 mph N/A   Overcast
8:55 PM 42.8°F 37.4°F 81% 29.54 in 10.0 miles South 16.1 mph 26.5 mph N/A   Overcast
9:15 PM 42.8°F 37.4°F 81% 29.54 in 10.0 miles South 13.8 mph 23.0 mph N/A   Overcast
9:35 PM 42.8°F 37.4°F 81% 29.53 in 10.0 miles South 10.4 mph 25.3 mph N/A   Mostly Cloudy
9:55 PM 42.8°F 37.4°F 81% 29.55 in 10.0 miles South 11.5 mph 24.2 mph N/A   Mostly Cloudy
10:15 PM 42.8°F 39.2°F 87% 29.55 in 10.0 miles SSE 8.1 mph 17.3 mph N/A Rain Light Rain
10:35 PM 41.0°F 39.2°F 93% 29.56 in 10.0 miles South 6.9 mph 18.4 mph N/A Rain Light Rain
10:55 PM 41.0°F 39.2°F 93% 29.54 in 6.0 miles SSE 10.4 mph 16.1 mph N/A Rain Light Rain
11:15 PM 41.0°F 39.2°F 93% 29.54 in 7.0 miles SSE 8.1 mph 17.3 mph N/A Rain Light Rain
11:35 PM 41.0°F 39.2°F 93% 29.52 in 6.0 miles South 6.9 mph 20.7 mph N/A Rain Light Rain
11:55 PM 41.0°F 39.2°F 93% 29.51 in 5.0 miles South 5.8 mph 18.4 mph N/A Rain Light Rain
Moon Phase
Dec. 19 Dec. 20 Dec. 28 Jan. 04 Jan. 11
Sunrise:08:00 AM (PST) Moon Rise:11:39 AM (PST)12/19
Sunset:04:17 PM (PST) Moon Set:No Moon Set/

Copyright © 2014 The Weather Underground, Inc.